GOMX-1

Last updated on Mon Sep 21 2026 00:03:14 GMT+0000 (Coordinated Universal Time)

1 39430U 13066Q 26263.50877128 .00001308 00000+0 20060-3 0 9994 2 39430 97.6441 97.9640 0128935 130.6160 230.6348 14.69710556683919
UTC large
Height (km)
Speed (km/s)
/
Latitude / Longitude
Inclination (degrees)
Orbital Period (minutes)
Azimuth
Elevation
Range (km)
Doppler Factor

Next 0 passes for location: London (51.5072 / 0.1276)

No passes found over London.
GOMX-1